User: anonymous   Login
Location: Unspecified
(0.0000°N, 0.0000°E)
Time: 05:49:11
(UTC+00:00)
Language:

YAOGAN-39 03C - Orbit

View from above orbital plane
View from above orbital plane
View from above satellite
View from above satellite

Ground track
Ground track

The orbit is defined by the following mean orbital elements,

1 57990U          26145.50265505 +.00000000 +00000-0 +20732-3 0 00006
2 57990  34.9906  77.5913 0011122 295.3741  64.5820 15.17757917    08
Epoch (UTC): 25 May 2026 12:03:49
Eccentricity: 0.0011122
inclination: 34.9906°
perigee height: 505 km
apogee height: 520 km
right ascension of ascending node: 77.5913°
argument of perigee: 295.3741°
revolutions per day: 15.17757917
mean anomaly at epoch: 64.5820°

The dashed part of the orbit path shows where the satellite is in the earth's shadow,  

DLR